Station Historical Data
Daily Summary for June 16, 2017 Units:  English    Metric   Both
« Previous Day
Next Day »
Daily Weekly Monthly Yearly Custom
  High: Low: Average:
Temperature: 87.7 °F 62.6 °F 75.2 °F
Dew Point: 62.8 °F 49.5 °F 56.8 °F
Humidity: 72 % 38 % 54 %
Wind Speed: 12.0 mph 0.0 mph 1.6 mph
Wind Gust: 15.0 mph - -
Wind:- - WSW
Pressure: 30.01 in 29.89 in -
Precipitation: 0.00 in    
Historical Graphs
 
 
Tabular Data for June 16, 2017
Time Temperature Dew Point Pressure Wind Wind Speed Wind Gust Humidity Rainfall Rate (Hourly) solar
00:01 66.8 °F 50.1 °F 30.01 in Calm   1.0 mph 55 % 0.00 in 0.00 W/m2
00:06 66.7 °F 50.0 °F 30.00 in NE 4.0 mph 4.0 mph 55 % 0.00 in 0.00 W/m2
00:11 66.6 °F 50.4 °F 30.00 in Calm     56 % 0.00 in 0.00 W/m2
00:16 66.5 °F 50.8 °F 30.00 in Calm   3.0 mph 57 % 0.00 in 0.00 W/m2
00:21 66.3 °F 50.6 °F 30.00 in Calm     57 % 0.00 in 0.00 W/m2
00:26 66.2 °F 51.0 °F 30.00 in Calm   1.0 mph 58 % 0.00 in 0.00 W/m2
00:31 66.1 °F 50.9 °F 30.00 in East 1.0 mph 1.0 mph 58 % 0.00 in 0.00 W/m2
00:36 66.0 °F 51.3 °F 30.00 in East 6.0 mph 7.0 mph 59 % 0.00 in 0.00 W/m2
00:41 65.9 °F 51.2 °F 30.00 in Calm   1.0 mph 59 % 0.00 in 0.00 W/m2
00:46 65.9 °F 51.2 °F 30.00 in East 2.0 mph 4.0 mph 59 % 0.00 in 0.00 W/m2
00:52 65.9 °F 51.6 °F 30.00 in Calm   4.0 mph 60 % 0.00 in 0.00 W/m2
00:57 65.8 °F 51.5 °F 30.00 in Calm     60 % 0.00 in 0.00 W/m2
01:02 65.8 °F 51.5 °F 29.99 in Calm     60 % 0.00 in 0.00 W/m2
01:07 65.8 °F 51.5 °F 29.99 in Calm   1.0 mph 60 % 0.00 in 0.00 W/m2
01:12 65.8 °F 52.0 °F 30.00 in Calm     61 % 0.00 in 0.00 W/m2
01:17 65.8 °F 52.0 °F 29.99 in Calm     61 % 0.00 in 0.00 W/m2
01:22 65.8 °F 51.5 °F 29.99 in Calm     60 % 0.00 in 0.00 W/m2
01:27 65.7 °F 51.5 °F 29.99 in Calm     60 % 0.00 in 0.00 W/m2
01:32 65.7 °F 51.9 °F 29.99 in Calm     61 % 0.00 in 0.00 W/m2
01:37 65.6 °F 51.4 °F 29.99 in Calm     60 % 0.00 in 0.00 W/m2
01:42 65.5 °F 51.7 °F 29.99 in Calm     61 % 0.00 in 0.00 W/m2
01:47 65.4 °F 52.1 °F 29.99 in Calm     62 % 0.00 in 0.00 W/m2
01:52 65.3 °F 51.5 °F 29.99 in Calm     61 % 0.00 in 0.00 W/m2
01:57 65.2 °F 51.9 °F 29.98 in Calm   1.0 mph 62 % 0.00 in 0.00 W/m2
02:02 65.0 °F 51.7 °F 29.98 in Calm     62 % 0.00 in 0.00 W/m2
02:07 64.8 °F 51.5 °F 29.98 in Calm     62 % 0.00 in 0.00 W/m2
02:12 64.7 °F 51.4 °F 29.98 in Calm     62 % 0.00 in 0.00 W/m2
02:17 64.5 °F 51.2 °F 29.98 in Calm     62 % 0.00 in 0.00 W/m2
02:22 64.5 °F 51.2 °F 29.98 in NE 3.0 mph 6.0 mph 62 % 0.00 in 0.00 W/m2
02:27 64.5 °F 51.6 °F 29.98 in Calm   4.0 mph 63 % 0.00 in 0.00 W/m2
02:32 64.4 °F 51.5 °F 29.98 in Calm     63 % 0.00 in 0.00 W/m2
02:37 64.4 °F 51.5 °F 29.98 in Calm     63 % 0.00 in 0.00 W/m2
02:42 64.4 °F 51.1 °F 29.98 in Calm     62 % 0.00 in 0.00 W/m2
02:47 64.4 °F 51.1 °F 29.98 in Calm     62 % 0.00 in 0.00 W/m2
02:52 64.3 °F 50.6 °F 29.98 in NE 3.0 mph 4.0 mph 61 % 0.00 in 0.00 W/m2
02:57 64.3 °F 51.0 °F 29.97 in ENE 3.0 mph 4.0 mph 62 % 0.00 in 0.00 W/m2
03:02 64.3 °F 51.0 °F 29.97 in East 4.0 mph 8.0 mph 62 % 0.00 in 0.00 W/m2
03:07 64.2 °F 50.9 °F 29.97 in Calm   7.0 mph 62 % 0.00 in 0.00 W/m2
03:12 64.2 °F 50.9 °F 29.97 in Calm   6.0 mph 62 % 0.00 in 0.00 W/m2
03:17 64.1 °F 50.8 °F 29.97 in Calm   5.0 mph 62 % 0.00 in 0.00 W/m2
03:22 64.1 °F 50.8 °F 29.97 in Calm   1.0 mph 62 % 0.00 in 0.00 W/m2
03:27 64.0 °F 51.2 °F 29.97 in East 6.0 mph 6.0 mph 63 % 0.00 in 0.00 W/m2
03:32 64.0 °F 51.2 °F 29.96 in Calm   6.0 mph 63 % 0.00 in 0.00 W/m2
03:37 63.9 °F 50.6 °F 29.97 in Calm   6.0 mph 62 % 0.00 in 0.00 W/m2
03:42 63.9 °F 50.6 °F 29.96 in Calm   1.0 mph 62 % 0.00 in 0.00 W/m2
03:47 63.8 °F 50.5 °F 29.97 in Calm   5.0 mph 62 % 0.00 in 0.00 W/m2
03:52 63.8 °F 50.1 °F 29.96 in Calm     61 % 0.00 in 0.00 W/m2
03:57 63.7 °F 50.5 °F 29.97 in Calm     62 % 0.00 in 0.00 W/m2
04:02 63.6 °F 49.9 °F 29.97 in Calm     61 % 0.00 in 0.00 W/m2
04:07 63.6 °F 50.4 °F 29.97 in Calm     62 % 0.00 in 0.00 W/m2
04:12 63.5 °F 49.8 °F 29.96 in Calm   1.0 mph 61 % 0.00 in 0.00 W/m2
04:13 63.5 °F 49.8 °F 29.96 in Calm   1.0 mph 61 % 0.00 in 0.00 W/m2
04:18 63.5 °F 49.8 °F 29.96 in Calm     61 % 0.00 in 0.00 W/m2
04:23 63.4 °F 49.7 °F 29.97 in Calm     61 % 0.00 in 0.00 W/m2
04:28 63.4 °F 49.7 °F 29.97 in Calm     61 % 0.00 in 0.00 W/m2
04:33 63.4 °F 49.7 °F 29.97 in Calm     61 % 0.00 in 0.00 W/m2
04:38 63.3 °F 50.1 °F 29.97 in Calm     62 % 0.00 in 0.00 W/m2
04:43 63.3 °F 49.6 °F 29.97 in Calm     61 % 0.00 in 0.00 W/m2
04:48 63.3 °F 49.6 °F 29.97 in Calm   1.0 mph 61 % 0.00 in 0.00 W/m2
04:53 63.2 °F 49.5 °F 29.97 in Calm     61 % 0.00 in 0.00 W/m2
04:58 63.2 °F 49.5 °F 29.97 in Calm   1.0 mph 61 % 0.00 in 0.00 W/m2
05:03 63.2 °F 49.5 °F 29.97 in Calm     61 % 0.00 in 0.00 W/m2
05:04 63.1 °F 49.5 °F 29.97 in Calm     61 % 0.00 in 0.00 W/m2
05:09 63.1 °F 49.9 °F 29.97 in Calm     62 % 0.00 in 0.00 W/m2
05:14 63.0 °F 49.8 °F 29.97 in Calm     62 % 0.00 in 0.00 W/m2
05:19 62.9 °F 49.7 °F 29.97 in Calm     62 % 0.00 in 0.00 W/m2
05:29 62.7 °F 49.9 °F 29.97 in ENE 4.0 mph 5.0 mph 63 % 0.00 in 0.00 W/m2
05:34 62.6 °F 49.8 °F 29.96 in Calm   7.0 mph 63 % 0.00 in 0.00 W/m2
05:39 62.6 °F 49.8 °F 29.96 in Calm   6.0 mph 63 % 0.00 in 5.00 W/m2
05:44 62.6 °F 49.8 °F 29.96 in Calm   4.0 mph 63 % 0.00 in 7.00 W/m2
05:49 62.6 °F 50.3 °F 29.96 in Calm   3.0 mph 64 % 0.00 in 9.00 W/m2
05:54 62.7 °F 50.4 °F 29.96 in Calm     64 % 0.00 in 11.00 W/m2
05:56 62.7 °F 50.4 °F 29.96 in Calm     64 % 0.00 in 11.00 W/m2
06:01 62.7 °F 50.4 °F 29.96 in Calm     64 % 0.00 in 12.00 W/m2
06:06 62.7 °F 49.9 °F 29.96 in Calm     63 % 0.00 in 14.00 W/m2
06:11 62.8 °F 50.0 °F 29.97 in Calm     63 % 0.00 in 16.00 W/m2
07:19 63.4 °F 53.1 °F 29.97 in Calm   4.0 mph 69 % 0.00 in 246.00 W/m2
07:24 63.5 °F 53.5 °F 29.97 in NNE 1.0 mph 5.0 mph 70 % 0.00 in 264.00 W/m2
07:29 63.7 °F 54.1 °F 29.97 in NNE 2.0 mph 5.0 mph 71 % 0.00 in 279.00 W/m2
07:34 63.8 °F 54.2 °F 29.97 in NNE 5.0 mph 6.0 mph 71 % 0.00 in 295.00 W/m2
07:39 64.0 °F 54.8 °F 29.97 in North 3.0 mph 5.0 mph 72 % 0.00 in 311.00 W/m2
07:44 64.3 °F 55.1 °F 29.97 in North 1.0 mph 4.0 mph 72 % 0.00 in 329.00 W/m2
07:49 64.5 °F 55.3 °F 29.97 in North 2.0 mph 6.0 mph 72 % 0.00 in 345.00 W/m2
07:54 64.8 °F 55.6 °F 29.97 in North 2.0 mph 5.0 mph 72 % 0.00 in 360.00 W/m2
07:55 64.8 °F 55.6 °F 29.97 in North 4.0 mph 5.0 mph 72 % 0.00 in 360.00 W/m2
08:00 65.0 °F 55.8 °F 29.97 in North 2.0 mph 6.0 mph 72 % 0.00 in 373.00 W/m2
08:05 65.4 °F 56.2 °F 29.97 in North 2.0 mph 9.0 mph 72 % 0.00 in 392.00 W/m2
08:10 65.8 °F 56.2 °F 29.97 in North 1.0 mph 10.0 mph 71 % 0.00 in 408.00 W/m2
08:15 66.2 °F 55.7 °F 29.97 in North 6.0 mph 9.0 mph 69 % 0.00 in 425.00 W/m2
08:20 66.6 °F 56.5 °F 29.97 in North 2.0 mph 7.0 mph 70 % 0.00 in 439.00 W/m2
08:25 66.9 °F 56.4 °F 29.97 in NNW 3.0 mph 8.0 mph 69 % 0.00 in 455.00 W/m2
08:30 67.2 °F 56.3 °F 29.97 in NNW 2.0 mph 7.0 mph 68 % 0.00 in 469.00 W/m2
08:35 67.6 °F 55.8 °F 29.97 in North 4.0 mph 11.0 mph 66 % 0.00 in 483.00 W/m2
08:40 68.2 °F 56.0 °F 29.97 in NNW 6.0 mph 6.0 mph 65 % 0.00 in 501.00 W/m2
08:45 68.8 °F 55.7 °F 29.97 in North 7.0 mph 7.0 mph 63 % 0.00 in 515.00 W/m2
08:50 69.5 °F 56.4 °F 29.97 in NNW 4.0 mph 7.0 mph 63 % 0.00 in 531.00 W/m2
08:55 70.1 °F 56.5 °F 29.97 in NNW 5.0 mph 9.0 mph 62 % 0.00 in 545.00 W/m2
09:00 70.6 °F 56.5 °F 29.97 in NNW 2.0 mph 8.0 mph 61 % 0.00 in 559.00 W/m2
09:05 71.1 °F 57.0 °F 29.97 in North 2.0 mph 8.0 mph 61 % 0.00 in 573.00 W/m2
09:10 71.6 °F 57.0 °F 29.97 in NNW 7.0 mph 9.0 mph 60 % 0.00 in 589.00 W/m2
09:15 72.2 °F 57.6 °F 29.97 in North 1.0 mph 11.0 mph 60 % 0.00 in 601.00 W/m2
09:16 72.3 °F 57.7 °F 29.97 in NNW 5.0 mph 6.0 mph 60 % 0.00 in 606.00 W/m2
09:21 72.7 °F 58.5 °F 29.97 in NNW 2.0 mph 8.0 mph 61 % 0.00 in 619.00 W/m2
09:26 72.9 °F 58.2 °F 29.97 in NNW 8.0 mph 10.0 mph 60 % 0.00 in 633.00 W/m2
09:31 73.2 °F 58.0 °F 29.96 in Calm   6.0 mph 59 % 0.00 in 647.00 W/m2
09:37 73.5 °F 58.8 °F 29.97 in North 4.0 mph 4.0 mph 60 % 0.00 in 657.00 W/m2
09:42 73.8 °F 58.6 °F 29.97 in Calm   7.0 mph 59 % 0.00 in 671.00 W/m2
09:47 74.1 °F 58.4 °F 29.96 in Calm   7.0 mph 58 % 0.00 in 684.00 W/m2
09:52 74.4 °F 58.7 °F 29.96 in NW 5.0 mph 9.0 mph 58 % 0.00 in 698.00 W/m2
09:57 74.7 °F 59.0 °F 29.96 in NNW 2.0 mph 3.0 mph 58 % 0.00 in 710.00 W/m2
10:02 75.0 °F 59.2 °F 29.96 in North 3.0 mph 8.0 mph 58 % 0.00 in 722.00 W/m2
10:07 75.3 °F 59.5 °F 29.96 in Calm   6.0 mph 58 % 0.00 in 735.00 W/m2
10:12 75.7 °F 59.4 °F 29.96 in Calm   9.0 mph 57 % 0.00 in 745.00 W/m2
10:17 76.2 °F 59.9 °F 29.96 in NW 5.0 mph 5.0 mph 57 % 0.00 in 754.00 W/m2
10:22 76.7 °F 58.8 °F 29.96 in Calm   4.0 mph 54 % 0.00 in 766.00 W/m2
10:27 77.1 °F 58.7 °F 29.96 in NNW 6.0 mph 6.0 mph 53 % 0.00 in 775.00 W/m2
10:32 77.6 °F 59.7 °F 29.95 in NW 8.0 mph 10.0 mph 54 % 0.00 in 789.00 W/m2
10:37 78.0 °F 59.5 °F 29.96 in Calm   11.0 mph 53 % 0.00 in 798.00 W/m2
10:42 78.4 °F 60.4 °F 29.96 in NNW 11.0 mph 13.0 mph 54 % 0.00 in 809.00 W/m2
10:47 78.8 °F 59.7 °F 29.95 in NNW 5.0 mph 8.0 mph 52 % 0.00 in 819.00 W/m2
10:52 79.1 °F 59.4 °F 29.95 in WNW 2.0 mph 4.0 mph 51 % 0.00 in 830.00 W/m2
10:57 79.4 °F 59.2 °F 29.95 in Calm   9.0 mph 50 % 0.00 in 837.00 W/m2
11:02 79.7 °F 59.4 °F 29.95 in Calm   3.0 mph 50 % 0.00 in 844.00 W/m2
11:07 80.0 °F 59.1 °F 29.95 in Calm   7.0 mph 49 % 0.00 in 851.00 W/m2
11:12 80.2 °F 58.8 °F 29.95 in NW 2.0 mph 5.0 mph 48 % 0.00 in 860.00 W/m2
11:17 80.5 °F 59.0 °F 29.95 in Calm   2.0 mph 48 % 0.00 in 868.00 W/m2
11:22 80.8 °F 58.7 °F 29.95 in WNW 2.0 mph 5.0 mph 47 % 0.00 in 875.00 W/m2
11:27 81.0 °F 59.5 °F 29.94 in NNW 3.0 mph 9.0 mph 48 % 0.00 in 882.00 W/m2
11:32 81.3 °F 59.8 °F 29.94 in NNW 3.0 mph 8.0 mph 48 % 0.00 in 891.00 W/m2
11:37 81.5 °F 58.8 °F 29.94 in NW 5.0 mph 10.0 mph 46 % 0.00 in 896.00 W/m2
11:42 81.7 °F 59.5 °F 29.94 in Calm   4.0 mph 47 % 0.00 in 900.00 W/m2
11:47 82.0 °F 59.8 °F 29.94 in Calm   5.0 mph 47 % 0.00 in 905.00 W/m2
11:52 82.4 °F 58.3 °F 29.94 in WNW 1.0 mph 8.0 mph 44 % 0.00 in 912.00 W/m2
11:57 82.7 °F 59.2 °F 29.94 in NW 1.0 mph 7.0 mph 45 % 0.00 in 919.00 W/m2
12:02 82.9 °F 59.4 °F 29.94 in WNW 5.0 mph 8.0 mph 45 % 0.00 in 919.00 W/m2
12:07 83.2 °F 58.4 °F 29.94 in NW 6.0 mph 6.0 mph 43 % 0.00 in 926.00 W/m2
12:12 83.4 °F 58.6 °F 29.94 in Calm   6.0 mph 43 % 0.00 in 928.00 W/m2
12:17 83.7 °F 58.8 °F 29.94 in NW 5.0 mph 5.0 mph 43 % 0.00 in 933.00 W/m2
12:22 84.0 °F 59.8 °F 29.94 in NNW 1.0 mph 7.0 mph 44 % 0.00 in 935.00 W/m2
12:27 84.3 °F 59.4 °F 29.94 in NW 7.0 mph 9.0 mph 43 % 0.00 in 937.00 W/m2
12:32 84.6 °F 59.7 °F 29.94 in Calm   3.0 mph 43 % 0.00 in 939.00 W/m2
12:37 84.8 °F 59.8 °F 29.94 in Calm     43 % 0.00 in 940.00 W/m2
12:42 85.0 °F 60.0 °F 29.94 in WNW 3.0 mph 7.0 mph 43 % 0.00 in 942.00 W/m2
12:47 85.3 °F 60.3 °F 29.94 in Calm   5.0 mph 43 % 0.00 in 940.00 W/m2
12:52 85.6 °F 61.2 °F 29.94 in Calm   2.0 mph 44 % 0.00 in 944.00 W/m2
12:57 85.6 °F 60.6 °F 29.93 in Calm   6.0 mph 43 % 0.00 in 942.00 W/m2
13:02 85.9 °F 60.8 °F 29.93 in WNW 5.0 mph 10.0 mph 43 % 0.00 in 942.00 W/m2
13:07 86.3 °F 60.5 °F 29.93 in Calm   6.0 mph 42 % 0.00 in 942.00 W/m2
13:12 86.5 °F 61.4 °F 29.93 in West 5.0 mph 11.0 mph 43 % 0.00 in 942.00 W/m2
13:18 86.6 °F 61.5 °F 29.93 in Calm     43 % 0.00 in 940.00 W/m2
13:23 86.5 °F 60.7 °F 29.92 in WNW 6.0 mph 7.0 mph 42 % 0.00 in 940.00 W/m2
13:28 86.5 °F 60.0 °F 29.92 in Calm   5.0 mph 41 % 0.00 in 935.00 W/m2
13:33 86.6 °F 61.5 °F 29.92 in West 5.0 mph 8.0 mph 43 % 0.00 in 933.00 W/m2
13:38 86.9 °F 60.4 °F 29.92 in Calm   7.0 mph 41 % 0.00 in 930.00 W/m2
13:43 87.1 °F 61.9 °F 29.92 in West 5.0 mph 8.0 mph 43 % 0.00 in 926.00 W/m2
13:48 87.2 °F 60.7 °F 29.92 in Calm   8.0 mph 41 % 0.00 in 925.00 W/m2
13:53 87.3 °F 62.1 °F 29.92 in Calm   12.0 mph 43 % 0.00 in 921.00 W/m2
13:58 87.6 °F 61.7 °F 29.92 in Calm   5.0 mph 42 % 0.00 in 918.00 W/m2
14:03 87.7 °F 61.8 °F 29.92 in WNW 6.0 mph 13.0 mph 42 % 0.00 in 912.00 W/m2
14:08 87.6 °F 61.0 °F 29.92 in West 1.0 mph 8.0 mph 41 % 0.00 in 907.00 W/m2
14:13 87.5 °F 60.9 °F 29.92 in West 7.0 mph 10.0 mph 41 % 0.00 in 905.00 W/m2
14:18 87.4 °F 62.2 °F 29.92 in West 5.0 mph 6.0 mph 43 % 0.00 in 898.00 W/m2
14:23 87.5 °F 61.6 °F 29.92 in Calm   9.0 mph 42 % 0.00 in 891.00 W/m2
14:28 87.3 °F 62.1 °F 29.91 in West 5.0 mph 14.0 mph 43 % 0.00 in 886.00 W/m2
14:33 87.2 °F 61.3 °F 29.91 in Calm   9.0 mph 42 % 0.00 in 879.00 W/m2
14:38 87.1 °F 61.9 °F 29.91 in West 2.0 mph 3.0 mph 43 % 0.00 in 872.00 W/m2
14:43 87.2 °F 62.7 °F 29.91 in Calm   10.0 mph 44 % 0.00 in 865.00 W/m2
14:48 87.2 °F 62.0 °F 29.91 in Calm   7.0 mph 43 % 0.00 in 856.00 W/m2
14:49 87.2 °F 62.0 °F 29.91 in Calm   7.0 mph 43 % 0.00 in 856.00 W/m2
14:54 87.3 °F 62.1 °F 29.91 in Calm   8.0 mph 43 % 0.00 in 849.00 W/m2
14:59 87.3 °F 61.4 °F 29.91 in WNW 4.0 mph 9.0 mph 42 % 0.00 in 840.00 W/m2
15:04 87.1 °F 61.9 °F 29.91 in West 3.0 mph 9.0 mph 43 % 0.00 in 833.00 W/m2
15:09 86.9 °F 62.4 °F 29.91 in West 5.0 mph 11.0 mph 44 % 0.00 in 819.00 W/m2
15:14 86.8 °F 61.6 °F 29.91 in Calm   9.0 mph 43 % 0.00 in 810.00 W/m2
15:19 86.6 °F 62.1 °F 29.91 in Calm   6.0 mph 44 % 0.00 in 802.00 W/m2
15:24 86.6 °F 62.1 °F 29.91 in WNW 4.0 mph 11.0 mph 44 % 0.00 in 791.00 W/m2
15:29 86.6 °F 62.1 °F 29.91 in NW 1.0 mph 7.0 mph 44 % 0.00 in 784.00 W/m2
15:34 86.6 °F 62.8 °F 29.91 in West 4.0 mph 12.0 mph 45 % 0.00 in 770.00 W/m2
15:39 86.6 °F 62.8 °F 29.91 in NW 6.0 mph 11.0 mph 45 % 0.00 in 758.00 W/m2
15:44 86.6 °F 62.1 °F 29.91 in Calm   12.0 mph 44 % 0.00 in 749.00 W/m2
15:49 86.5 °F 62.0 °F 29.90 in Calm   9.0 mph 44 % 0.00 in 738.00 W/m2
15:54 86.5 °F 62.0 °F 29.90 in West 6.0 mph 8.0 mph 44 % 0.00 in 726.00 W/m2
15:59 86.6 °F 62.1 °F 29.90 in WNW 4.0 mph 13.0 mph 44 % 0.00 in 712.00 W/m2
16:04 86.6 °F 60.8 °F 29.90 in NNW 3.0 mph 10.0 mph 42 % 0.00 in 701.00 W/m2
16:09 86.6 °F 60.1 °F 29.90 in Calm   12.0 mph 41 % 0.00 in 689.00 W/m2
16:14 86.7 °F 60.9 °F 29.90 in Calm   5.0 mph 42 % 0.00 in 682.00 W/m2
16:19 86.7 °F 61.5 °F 29.90 in Calm   10.0 mph 43 % 0.00 in 670.00 W/m2
16:25 86.7 °F 60.9 °F 29.90 in Calm   11.0 mph 42 % 0.00 in 654.00 W/m2
16:30 86.6 °F 60.8 °F 29.90 in NW 4.0 mph 12.0 mph 42 % 0.00 in 640.00 W/m2
16:35 86.6 °F 60.1 °F 29.90 in NW 12.0 mph 12.0 mph 41 % 0.00 in 629.00 W/m2
16:40 86.4 °F 59.2 °F 29.90 in NW 4.0 mph 12.0 mph 40 % 0.00 in 615.00 W/m2
16:45 86.3 °F 59.8 °F 29.90 in Calm   9.0 mph 41 % 0.00 in 601.00 W/m2
16:50 86.2 °F 59.8 °F 29.90 in NW 1.0 mph 8.0 mph 41 % 0.00 in 587.00 W/m2
16:55 86.2 °F 60.4 °F 29.90 in Calm   10.0 mph 42 % 0.00 in 577.00 W/m2
17:00 86.2 °F 59.1 °F 29.90 in Calm   7.0 mph 40 % 0.00 in 555.00 W/m2
17:05 86.2 °F 59.1 °F 29.90 in NW 5.0 mph 13.0 mph 40 % 0.00 in 547.00 W/m2
17:10 86.1 °F 59.0 °F 29.90 in Calm   8.0 mph 40 % 0.00 in 529.00 W/m2
17:15 86.1 °F 58.3 °F 29.90 in Calm   13.0 mph 39 % 0.00 in 517.00 W/m2
17:20 86.0 °F 58.2 °F 29.90 in WNW 7.0 mph 13.0 mph 39 % 0.00 in 497.00 W/m2
17:25 85.8 °F 58.0 °F 29.90 in WNW 4.0 mph 11.0 mph 39 % 0.00 in 478.00 W/m2
17:30 85.7 °F 58.6 °F 29.89 in NNW 9.0 mph 12.0 mph 40 % 0.00 in 469.00 W/m2
17:35 85.6 °F 57.8 °F 29.90 in NW 6.0 mph 11.0 mph 39 % 0.00 in 457.00 W/m2
17:40 85.5 °F 57.0 °F 29.90 in Calm   12.0 mph 38 % 0.00 in 443.00 W/m2
17:45 85.4 °F 57.7 °F 29.90 in Calm   11.0 mph 39 % 0.00 in 429.00 W/m2
17:50 85.3 °F 58.3 °F 29.90 in WNW 3.0 mph 7.0 mph 40 % 0.00 in 404.00 W/m2
17:55 85.2 °F 58.2 °F 29.90 in WNW 3.0 mph 10.0 mph 40 % 0.00 in 396.00 W/m2
18:00 85.2 °F 57.5 °F 29.90 in NW 5.0 mph 9.0 mph 39 % 0.00 in 374.00 W/m2
18:05 85.1 °F 57.4 °F 29.90 in Calm   14.0 mph 39 % 0.00 in 362.00 W/m2
18:10 85.0 °F 57.3 °F 29.90 in Calm   14.0 mph 39 % 0.00 in 320.00 W/m2
18:15 84.8 °F 57.1 °F 29.90 in NW 2.0 mph 12.0 mph 39 % 0.00 in 329.00 W/m2
18:20 84.7 °F 57.7 °F 29.90 in Calm   11.0 mph 40 % 0.00 in 320.00 W/m2
18:25 84.6 °F 58.3 °F 29.90 in NW 11.0 mph 12.0 mph 41 % 0.00 in 301.00 W/m2
18:30 84.5 °F 57.5 °F 29.90 in NW 7.0 mph 13.0 mph 40 % 0.00 in 290.00 W/m2
18:35 84.5 °F 58.9 °F 29.90 in Calm   10.0 mph 42 % 0.00 in 274.00 W/m2
18:40 84.3 °F 58.7 °F 29.90 in NW 7.0 mph 11.0 mph 42 % 0.00 in 169.00 W/m2
18:45 84.1 °F 57.9 °F 29.90 in Calm   12.0 mph 41 % 0.00 in 209.00 W/m2
18:50 83.9 °F 58.4 °F 29.90 in NW 1.0 mph 11.0 mph 42 % 0.00 in 230.00 W/m2
18:51 83.9 °F 58.4 °F 29.90 in NW 1.0 mph 11.0 mph 42 % 0.00 in 230.00 W/m2
18:56 83.6 °F 58.8 °F 29.90 in NW 6.0 mph 10.0 mph 43 % 0.00 in 56.00 W/m2
19:01 83.2 °F 57.8 °F 29.90 in Calm   10.0 mph 42 % 0.00 in 56.00 W/m2
19:06 82.9 °F 57.5 °F 29.90 in Calm   15.0 mph 42 % 0.00 in 56.00 W/m2
19:11 82.6 °F 58.5 °F 29.90 in NW 6.0 mph 12.0 mph 44 % 0.00 in 113.00 W/m2
19:16 82.3 °F 58.9 °F 29.90 in NNW 5.0 mph 9.0 mph 45 % 0.00 in 91.00 W/m2
19:20 81.9 °F 59.1 °F 29.90 in NNW 2.0 mph 8.0 mph 46 % 0.00 in 125.00 W/m2
19:21 81.9 °F 59.1 °F 29.90 in Calm   4.0 mph 46 % 0.00 in 141.00 W/m2
19:26 81.6 °F 58.8 °F 29.90 in Calm     46 % 0.00 in 146.00 W/m2
19:31 81.4 °F 59.3 °F 29.91 in Calm     47 % 0.00 in 139.00 W/m2
19:36 81.2 °F 59.7 °F 29.91 in NW 1.0 mph 1.0 mph 48 % 0.00 in 125.00 W/m2
19:41 80.9 °F 58.8 °F 29.91 in Calm   1.0 mph 47 % 0.00 in 109.00 W/m2
19:46 80.8 °F 59.9 °F 29.91 in Calm     49 % 0.00 in 93.00 W/m2
19:51 80.6 °F 60.3 °F 29.91 in NNW 1.0 mph 1.0 mph 50 % 0.00 in 76.00 W/m2
19:56 80.3 °F 60.0 °F 29.91 in Calm     50 % 0.00 in 62.00 W/m2
20:01 80.1 °F 60.4 °F 29.91 in Calm     51 % 0.00 in 40.00 W/m2
20:06 79.8 °F 60.6 °F 29.91 in Calm     52 % 0.00 in 28.00 W/m2
20:11 79.4 °F 60.3 °F 29.91 in Calm     52 % 0.00 in 19.00 W/m2
20:16 79.0 °F 60.4 °F 29.91 in Calm   2.0 mph 53 % 0.00 in 14.00 W/m2
20:21 78.6 °F 60.1 °F 29.91 in Calm     53 % 0.00 in 11.00 W/m2
20:26 78.2 °F 60.2 °F 29.91 in Calm     54 % 0.00 in 7.00 W/m2
20:31 78.0 °F 60.0 °F 29.91 in Calm     54 % 0.00 in 5.00 W/m2
20:36 77.6 °F 59.7 °F 29.91 in Calm     54 % 0.00 in 0.00 W/m2
20:41 77.1 °F 59.2 °F 29.91 in Calm     54 % 0.00 in 0.00 W/m2
20:46 76.7 °F 59.3 °F 29.91 in Calm     55 % 0.00 in 0.00 W/m2
20:51 76.3 °F 60.0 °F 29.91 in Calm     57 % 0.00 in 0.00 W/m2
20:56 76.0 °F 59.7 °F 29.91 in Calm     57 % 0.00 in 0.00 W/m2
21:01 75.6 °F 59.8 °F 29.91 in Calm     58 % 0.00 in 0.00 W/m2
21:06 75.2 °F 58.9 °F 29.91 in North 3.0 mph 5.0 mph 57 % 0.00 in 0.00 W/m2
21:11 74.9 °F 59.1 °F 29.91 in Calm     58 % 0.00 in 0.00 W/m2
21:16 74.6 °F 58.9 °F 29.92 in Calm     58 % 0.00 in 0.00 W/m2
21:21 74.3 °F 58.6 °F 29.92 in Calm     58 % 0.00 in 0.00 W/m2
21:26 74.1 °F 58.4 °F 29.92 in North 2.0 mph 4.0 mph 58 % 0.00 in 0.00 W/m2
21:31 74.0 °F 58.3 °F 29.92 in Calm     58 % 0.00 in 0.00 W/m2
21:36 73.9 °F 58.2 °F 29.92 in Calm     58 % 0.00 in 0.00 W/m2
21:41 73.8 °F 58.1 °F 29.92 in Calm     58 % 0.00 in 0.00 W/m2
21:46 73.7 °F 58.0 °F 29.92 in Calm     58 % 0.00 in 0.00 W/m2
21:51 73.6 °F 58.4 °F 29.92 in Calm     59 % 0.00 in 0.00 W/m2
21:56 73.5 °F 58.3 °F 29.92 in Calm     59 % 0.00 in 0.00 W/m2
22:01 73.4 °F 58.2 °F 29.92 in Calm     59 % 0.00 in 0.00 W/m2
22:06 73.4 °F 58.2 °F 29.92 in Calm     59 % 0.00 in 0.00 W/m2
22:11 73.3 °F 58.1 °F 29.92 in Calm     59 % 0.00 in 0.00 W/m2
22:17 73.2 °F 58.0 °F 29.92 in Calm     59 % 0.00 in 0.00 W/m2
22:22 73.2 °F 58.0 °F 29.92 in Calm     59 % 0.00 in 0.00 W/m2
22:27 73.2 °F 58.0 °F 29.93 in Calm     59 % 0.00 in 0.00 W/m2
22:32 73.1 °F 57.9 °F 29.92 in Calm     59 % 0.00 in 0.00 W/m2
22:37 73.1 °F 57.9 °F 29.92 in Calm     59 % 0.00 in 0.00 W/m2
22:42 73.0 °F 57.8 °F 29.92 in Calm     59 % 0.00 in 0.00 W/m2
22:47 72.9 °F 57.8 °F 29.92 in Calm     59 % 0.00 in 0.00 W/m2
22:52 72.9 °F 57.8 °F 29.92 in Calm   2.0 mph 59 % 0.00 in 0.00 W/m2
22:57 73.0 °F 57.8 °F 29.92 in ENE 2.0 mph 2.0 mph 59 % 0.00 in 0.00 W/m2
22:58 72.9 °F 57.8 °F 29.92 in Calm   4.0 mph 59 % 0.00 in 0.00 W/m2
23:03 72.9 °F 57.8 °F 29.92 in Calm   5.0 mph 59 % 0.00 in 0.00 W/m2
23:08 72.9 °F 57.8 °F 29.92 in ESE 2.0 mph 7.0 mph 59 % 0.00 in 0.00 W/m2
23:13 72.9 °F 57.8 °F 29.92 in ESE 4.0 mph 8.0 mph 59 % 0.00 in 0.00 W/m2
23:18 72.8 °F 58.1 °F 29.92 in Calm   6.0 mph 60 % 0.00 in 0.00 W/m2
23:23 72.8 °F 58.1 °F 29.92 in East 5.0 mph 7.0 mph 60 % 0.00 in 0.00 W/m2
23:28 72.6 °F 58.4 °F 29.92 in East 1.0 mph 8.0 mph 61 % 0.00 in 0.00 W/m2
23:33 72.5 °F 58.3 °F 29.92 in East 6.0 mph 6.0 mph 61 % 0.00 in 0.00 W/m2
23:38 72.5 °F 58.8 °F 29.91 in Calm   5.0 mph 62 % 0.00 in 0.00 W/m2
23:43 72.4 °F 58.7 °F 29.91 in Calm   6.0 mph 62 % 0.00 in 0.00 W/m2
23:48 72.4 °F 58.7 °F 29.91 in Calm   4.0 mph 62 % 0.00 in 0.00 W/m2
23:53 72.4 °F 58.7 °F 29.91 in Calm     62 % 0.00 in 0.00 W/m2
23:59 72.3 °F 58.6 °F 29.91 in Calm   2.0 mph 62 % 0.00 in 0.00 W/m2
Juneau County Weather
Compliments of Weather Underground - 4.5 mb
 WU-history PHP script courtesy of   Juneau County Weather.
powered by Cumulus v1.9.3 (1059)
Ambient Weather VWS v14.00
Top Contact Website Map Copyright © 2007 - 2018 Foresthillweather.com Never base important decisions on this or any weather information obtained from the Internet